User: anonymous   Login
Location: Valley View Observatory
(41.0081°N, 76.5874°W)
Time: 18:09:38
(UTC-04:00)
Language:

Cosmos 2237 Rocket - Orbit

View from above orbital plane
View from above orbital plane
View from above satellite
View from above satellite

Ground track
Ground track

The orbit data is extracted from the following two-line orbital elements,

1 22566U 93016B   15187.15619092  .00000036  00000-0  43388-4 0  9994
2 22566 071.0075 121.4633 0009145 146.9980 213.1715 14.14901420150551
Epoch (UTC): 06 July 2015 03:44:54
Eccentricity: 0.0009145
inclination: 71.0075°
perigee height: 836 km
apogee height: 849 km
right ascension of ascending node: 121.4633°
argument of perigee: 146.9980°
revolutions per day: 14.14901420
mean anomaly at epoch: 213.1715°
orbit number at epoch: 15055

The dashed part of the orbit path shows where the satellite is in the earth's shadow,  

DLR